Regional Weather Roundup
Issued by NWS Sterling, VA

Home | Current Version | Previous Version | Graphics & Text | Print | Product List | Glossary On
Versions: 1 2 3 4 5 6 7 8 9 10 11 12 13 14 15 16 17 18 19 20 21 22 23 24 25 26 27 28 29 30 31 32 33 34 35 36 37 38 39 40 41 42 43 44 45 46 47 48 49 50
000
ASUS41 KLWX 061210
RWRLWX

REGIONAL WEATHER ROUNDUP
NATIONAL WEATHER SERVICE BALTIMORE MD/WASHINGTON DC
700 AM EST FRI MAR 06 2015

Note: "FAIR" indicates few or no clouds below 12,000 feet
with no significant weather and/or obstructions to visibility.
 TC=TEMPERATURE CELSIUS

 * =Non NWS site. Station does not report precipitation (e.g. rain,
    snow, etc.), thunder, or fog.

DCZ001-MDZ009-015-VAZ040>042-051-053>054-061300-
WASHINGTON METRO

CITY           SKY/WX    TMP DP  RH WIND       PRES   REMARKS
WASHINGTON NAT PTCLDY    16   1  51 NW9       30.59R WCI   4
DULLES         PTCLDY    10  -1  61 N7        30.57R
ANDREWS AFB    PTCLDY    10   0  65 N9        30.55R WCI  -3
FT BELVOIR     PTCLDY    13   1  58 NW8       30.59R WCI   2
QUANTICO       CLEAR     14   3  61 N10       30.60R WCI   1
COLLEGE PARK*  PTCLDY    10   5  79 W3        30.57S
LEESBURG*      PTCLDY    10   3  72 N6        30.57S
MANASSAS*      CLEAR     10   3  72 N9        30.58R WCI  -2
GAITHERSBURG*  MOCLDY     5  -4  66 CALM      30.57S

$$

MDZ006>007-011-014-061300-
BALTIMORE METRO

CITY           SKY/WX    TMP DP  RH WIND       PRES   REMARKS
BWI AIRPORT    PTCLDY    11   2  67 NW3       30.56R
MD SCIENCE CTR   N/A     14   2  58 MISG      30.58R
MARTIN STATE   CLEAR     12   3  67 CALM      30.59R
ANNAPOLIS      PTCLDY    16   6  65 NW9       30.57R WCI   4
FORT MEADE*    PTCLDY     9   3  78 CALM      30.59R

$$

MDZ012-015-019>023-061300-
MARYLAND EASTERN SHORE

CITY           SKY/WX    TMP DP  RH WIND       PRES   REMARKS
OCEAN CITY     PTCLDY    17   7  64 N14       30.51R WCI   3
SALISBURY      PTCLDY    16   5  62 N8        30.53R WCI   5
BAY BRIDGE AP*   N/A     18   3  53 N15       30.56S WCI   3
CAMBRIDGE*     PTCLDY    19   5  53 N9        30.54R WCI   9
EASTON*        CLEAR     14   7  73 N6        30.59R

$$

MDZ017>025-061300-
SOUTHERN MARYLAND

CITY           SKY/WX    TMP DP  RH WIND       PRES   REMARKS
PATUXENT RIVER PTCLDY    15   4  61 NW14      30.55R WCI   0
ST INIGOES     PTCLDY    17   5  59 VRB6      30.54R
LEONARDTOWN*   PTCLDY    16   5  62 CALM      30.56R

$$

MDZ003>005-061300-
NORTH CENTRAL MARYLAND

CITY           SKY/WX    TMP DP  RH WIND       PRES   REMARKS
FREDERICK*     CLEAR      0  -8  71 CALM      30.61R
HAGERSTOWN APT MOCLDY     5  -3  69 NW7       30.53F
WESTMINSTER*   MOCLDY     3   0  85 CALM      30.51S

$$

MDZ501>502-061300-
WESTERN MARYLAND

CITY           SKY/WX    TMP DP  RH WIND       PRES   REMARKS
OAKLAND*       PTCLDY     0   0 100 NW6       30.29F
CUMBERLAND*    PTCLDY     3  -2  78 CALM      30.58S

$$

VAZ025>031-061300-
SHENANDOAH VALLEY

CITY           SKY/WX    TMP DP  RH WIND       PRES   REMARKS
WINCHESTER*    MOCLDY     5  -4  66 CALM      30.55S
FRONT ROYAL*   FAIR       5   1  85 CALM      30.53S
LURAY*         FAIR       1   0  92 CALM      30.52R FOG
NEW MARKET*    FAIR     N/A N/A N/A CALM      30.51R
STAUNTON*      MOCLDY    -1  -6  82 CALM      30.51R
WAYNESBORO*    FAIR      -1  -3  90 CALM      30.46S

$$

WVZ021-048>050-054>055-061300-
EASTERN WEST VIRGINIA PANHANDLE

CITY           SKY/WX    TMP DP  RH WIND       PRES   REMARKS
MARTINSBURG    MOCLDY     3  -4  72 CALM      30.56S
PETERSBURG*    NOT AVBL

$$

VAZ036>039-050-061300-
CENTRAL FOOTHILLS

CITY           SKY/WX    TMP DP  RH WIND       PRES   REMARKS
CHARLOTTESVILL PTCLDY    11   4  73 N3        30.53R
CULPEPER*      PTCLDY    12   1  62 N3        30.56R
ORANGE*        PTCLDY    14   3  62 N7        30.56R
GORDONSVILLE*  FAIR       7   0  74 CALM      30.54R
WARRENTON*     FAIR      10   5  80 NW6       30.55S

$$

VAZ055>057-061300-
NORTH AND CENTRAL PIEDMONT

CITY           SKY/WX    TMP DP  RH WIND       PRES   REMARKS
FREDERICKSBRG* PTCLDY    14   5  68 N5        30.57S
STAFFORD*      CLEAR     11  -1  57 CALM      30.61S

$$

NCZ024-NYZ072-PAZ021-071-VAZ022-071-061300-
OTHER REGIONAL OBSERVATIONS

CITY           SKY/WX    TMP DP  RH WIND       PRES   REMARKS
NEW YORK CITY  CLEAR     13   1  59 VRB6      30.53R
PHILADELPHIA   PTCLDY    12   1  61 N6        30.57R
PITTSBURGH     PTCLDY    -3  -7  82 CALM      30.49F
ROANOKE        PTCLDY    13   8  81 CALM      30.50R
RICHMOND       PTCLDY    17   4  56 N16       30.54R WCI   2
RALEIGH        MOCLDY    25  16  68 NE9       30.48R WCI  15

$$

ANZ530>537-061300-
MARINE OBSERVATIONS

STATION/POSITION TIME  TEMP    WIND        PRES
                       AIR SEA DIR/SP/G
                 (UTC) (F)     (DEG/KT/KT) (MB)
THOMAS PT LIGHT  1200          140/ 16/ 19   N/A
BALT KEY BRIDGE  1100   15     330/  9/ 11 1035.2R
COVE POINT       1100   18     360/ 17/ 22 1033.6R
LEWISETTA        1100   19 32  350/  9/ 13 1033.8R
SOLOMONS ISLAND  1100      32                N/A

$$




USA.gov is the U.S. government's official web portal to all federal, state and local government web resources and services.